Meteo pe oră la Almalybak

Astăzi, 28 Ianuarie, Joi

Timp Temperatura Precipitaţii Vânt Presiune Umiditate
00:00 -7°C° 0 mm 1 m/s 699 mmHg 65%
01:00 -7°C° 0 mm 1 m/s 699 mmHg 65%
02:00 -7°C° 0 mm 1 m/s 699 mmHg 64%
03:00 -7°C° 0 mm 1 m/s 699 mmHg 63%
04:00 -7°C° 0 mm 1 m/s 699 mmHg 62%
05:00 -7°C° 0 mm 1 m/s 699 mmHg 61%
06:00 -7°C° 0 mm 1 m/s 700 mmHg 62%
07:00 -7°C° 0 mm 1 m/s 700 mmHg 63%
08:00 -7°C° 0 mm 1 m/s 700 mmHg 64%
09:00 -6°C° 0 mm 1 m/s 700 mmHg 67%
10:00 -3°C° 0 mm 1 m/s 700 mmHg 69%
11:00 -2°C° 0 mm 1 m/s 699 mmHg 72%
12:00 -1°C° 0 mm 1 m/s 699 mmHg 74%
13:00 -1°C° 0 mm 1 m/s 699 mmHg 76%
14:00 0°C° 0 mm 1 m/s 698 mmHg 78%
15:00 -2°C° 0 mm 1 m/s 698 mmHg 78%
16:00 -4°C° 0 mm 1 m/s 698 mmHg 78%
17:00 -6°C° 0 mm 0 m/s 699 mmHg 78%
18:00 -6°C° 0 mm 0 m/s 699 mmHg 75%
19:00 -6°C° 0 mm 1 m/s 699 mmHg 71%
20:00 -7°C° 0 mm 1 m/s 699 mmHg 68%
21:00 -7°C° 0 mm 1 m/s 699 mmHg 67%
22:00 -7°C° 0 mm 1 m/s 699 mmHg 67%
23:00 -7°C° 0 mm 1 m/s 699 mmHg 66%

Mâine, 29 Ianuarie, Vineri

Timp Temperatura Precipitaţii Vânt Presiune Umiditate
00:00 -7°C° 0 mm 1 m/s 699 mmHg 66%
01:00 -7°C° 0 mm 1 m/s 699 mmHg 66%
02:00 -7°C° 0 mm 1 m/s 699 mmHg 66%
03:00 -7°C° 0 mm 1 m/s 699 mmHg 65%
04:00 -7°C° 0 mm 1 m/s 699 mmHg 65%
05:00 -7°C° 0 mm 1 m/s 699 mmHg 64%
06:00 -7°C° 0 mm 1 m/s 699 mmHg 65%
07:00 -7°C° 0 mm 1 m/s 700 mmHg 65%
08:00 -7°C° 0 mm 1 m/s 700 mmHg 65%
09:00 -4°C° 0 mm 1 m/s 699 mmHg 68%
10:00 -3°C° 0 mm 1 m/s 699 mmHg 71%
11:00 -1°C° 0 mm 1 m/s 699 mmHg 74%
12:00 -1°C° 0 mm 1 m/s 698 mmHg 74%
13:00 0°C° 0 mm 1 m/s 698 mmHg 75%
14:00 0°C° 0 mm 1 m/s 697 mmHg 75%
15:00 -1°C° 0 mm 1 m/s 697 mmHg 74%
16:00 -3°C° 0 mm 1 m/s 697 mmHg 72%
17:00 -4°C° 0 mm 1 m/s 697 mmHg 70%
18:00 -6°C° 0 mm 2 m/s 697 mmHg 67%
19:00 -6°C° 0 mm 2 m/s 698 mmHg 63%
20:00 -6°C° 0 mm 2 m/s 698 mmHg 60%
21:00 -6°C° 0 mm 2 m/s 698 mmHg 59%
22:00 -6°C° 0 mm 2 m/s 698 mmHg 58%
23:00 -6°C° 0 mm 2 m/s 698 mmHg 57%

Poimâine, 30 Ianuarie, Sâmbătă

Timp Temperatura Precipitaţii Vânt Presiune Umiditate
00:00 -6°C° 0 mm 2 m/s 698 mmHg 56%
01:00 -6°C° 0 mm 2 m/s 697 mmHg 56%
02:00 -6°C° 0 mm 2 m/s 697 mmHg 55%
03:00 -6°C° 0 mm 2 m/s 697 mmHg 55%
04:00 -6°C° 0 mm 2 m/s 697 mmHg 55%
05:00 -6°C° 0 mm 2 m/s 697 mmHg 54%
06:00 -6°C° 0 mm 2 m/s 697 mmHg 54%
07:00 -6°C° 0 mm 2 m/s 697 mmHg 54%
08:00 -6°C° 0 mm 2 m/s 697 mmHg 54%
09:00 -4°C° 0 mm 2 m/s 696 mmHg 59%
10:00 -3°C° 0 mm 2 m/s 696 mmHg 64%
11:00 -1°C° 0 mm 2 m/s 695 mmHg 69%
12:00 -1°C° 0 mm 2 m/s 695 mmHg 70%
13:00 +1°C° 0 mm 2 m/s 694 mmHg 71%
14:00 +1°C° 0 mm 2 m/s 694 mmHg 72%
15:00 -1°C° 0 mm 2 m/s 694 mmHg 66%
16:00 -2°C° 0 mm 2 m/s 694 mmHg 60%
17:00 -3°C° 0 mm 2 m/s 693 mmHg 55%
18:00 -3°C° 0 mm 2 m/s 694 mmHg 53%
19:00 -4°C° 0 mm 2 m/s 694 mmHg 51%
20:00 -4°C° 0 mm 2 m/s 694 mmHg 48%
21:00 -4°C° 0 mm 2 m/s 694 mmHg 48%
22:00 -4°C° 0 mm 2 m/s 693 mmHg 48%
23:00 -4°C° 0 mm 2 m/s 693 mmHg 48%

31 Ianuarie, Duminică

Timp Temperatura Precipitaţii Vânt Presiune Umiditate
00:00 -4°C° 0 mm 2 m/s 693 mmHg 47%
01:00 -4°C° 0 mm 2 m/s 693 mmHg 46%
02:00 -4°C° 0 mm 2 m/s 693 mmHg 46%
03:00 -4°C° 0 mm 2 m/s 693 mmHg 43%
04:00 -4°C° 0 mm 2 m/s 693 mmHg 41%
05:00 -4°C° 0 mm 2 m/s 692 mmHg 38%
06:00 -3°C° 0 mm 2 m/s 692 mmHg 37%
07:00 -2°C° 0 mm 2 m/s 692 mmHg 37%
08:00 -2°C° 0 mm 3 m/s 692 mmHg 36%
09:00 -1°C° 0 mm 2 m/s 692 mmHg 45%
10:00 +2°C° 0 mm 2 m/s 691 mmHg 54%
11:00 +4°C° 0 mm 1 m/s 691 mmHg 63%
12:00 +4°C° 0 mm 1 m/s 690 mmHg 64%
13:00 +5°C° 0 mm 1 m/s 690 mmHg 65%
14:00 +6°C° 0 mm 1 m/s 690 mmHg 66%
15:00 +5°C° 0 mm 1 m/s 689 mmHg 60%
16:00 +4°C° 0 mm 1 m/s 689 mmHg 54%
17:00 +1°C° 0 mm 2 m/s 689 mmHg 48%
18:00 +2°C° 0 mm 1 m/s 689 mmHg 46%
19:00 +2°C° 0 mm 1 m/s 689 mmHg 45%
20:00 +2°C° 0 mm 1 m/s 689 mmHg 43%
21:00 +2°C° 0 mm 1 m/s 688 mmHg 43%
22:00 +1°C° 0 mm 2 m/s 688 mmHg 43%
23:00 +1°C° 0 mm 2 m/s 688 mmHg 43%

1 Februarie, Luni

Timp Temperatura Precipitaţii Vânt Presiune Umiditate
00:00 +2°C° 0 mm 1 m/s 689 mmHg 44%
01:00 +3°C° 0 mm 1 m/s 689 mmHg 45%
02:00 +3°C° 0 mm 1 m/s 690 mmHg 46%
03:00 +3°C° 0 mm 1 m/s 690 mmHg 47%
04:00 +3°C° 0 mm 1 m/s 691 mmHg 47%
05:00 +3°C° 0 mm 1 m/s 691 mmHg 47%
06:00 +4°C° 0 mm 1 m/s 692 mmHg 47%
07:00 +4°C° 0 mm 1 m/s 692 mmHg 48%
08:00 +4°C° 0 mm 1 m/s 693 mmHg 48%
09:00 +5°C° 0 mm 1 m/s 693 mmHg 55%
10:00 +5°C° 0 mm 1 m/s 693 mmHg 63%
11:00 +6°C° 0 mm 1 m/s 693 mmHg 70%
12:00 +6°C° 0 mm 1 m/s 693 mmHg 71%
13:00 +5°C° 0 mm 0 m/s 693 mmHg 73%
14:00 +5°C° 0 mm 0 m/s 693 mmHg 75%
15:00 +4°C° 0 mm 0 m/s 694 mmHg 72%
16:00 +3°C° 0 mm 0 m/s 694 mmHg 70%
17:00 +2°C° 0 mm 0 m/s 694 mmHg 67%
18:00 +2°C° 0 mm 0 m/s 695 mmHg 68%
19:00 +3°C° 0 mm 1 m/s 696 mmHg 68%
20:00 +2°C° 0 mm 1 m/s 696 mmHg 69%
21:00 +2°C° 0 mm 1 m/s 697 mmHg 69%
22:00 +2°C° 0 mm 1 m/s 697 mmHg 69%
23:00 +2°C° 0 mm 1 m/s 697 mmHg 69%

2 Februarie, Marţi

Timp Temperatura Precipitaţii Vânt Presiune Umiditate
00:00 +2°C° 0 mm 1 m/s 698 mmHg 70%
01:00 +1°C° 0 mm 0 m/s 698 mmHg 71%
02:00 +1°C° 0 mm 0 m/s 698 mmHg 71%
03:00 +1°C° 0.1 mm 0 m/s 698 mmHg 72%
04:00 +1°C° 0.1 mm 0 m/s 699 mmHg 73%
05:00 +1°C° 0.1 mm 0 m/s 699 mmHg 74%
06:00 +1°C° 0 mm 0 m/s 699 mmHg 74%
07:00 +1°C° 0 mm 0 m/s 699 mmHg 75%
08:00 +1°C° 0 mm 0 m/s 699 mmHg 75%
09:00 +1°C° 0 mm 0 m/s 699 mmHg 77%
10:00 +2°C° 0 mm 0 m/s 699 mmHg 79%
11:00 +3°C° 0 mm 0 m/s 699 mmHg 81%
12:00 +3°C° 0 mm 0 m/s 699 mmHg 83%
13:00 +4°C° 0 mm 1 m/s 699 mmHg 85%
14:00 +4°C° 0 mm 1 m/s 698 mmHg 87%
15:00 +2°C° 0 mm 0 m/s 699 mmHg 87%
16:00 +1°C° 0 mm 0 m/s 699 mmHg 87%
17:00 +1°C° 0 mm 0 m/s 699 mmHg 86%
18:00 0°C° 0 mm 0 m/s 699 mmHg 84%
19:00 +1°C° 0 mm 1 m/s 700 mmHg 81%
20:00 +1°C° 0 mm 1 m/s 700 mmHg 78%
21:00 +1°C° 0 mm 1 m/s 700 mmHg 77%
22:00 +1°C° 0 mm 1 m/s 700 mmHg 76%
23:00 +1°C° 0 mm 1 m/s 700 mmHg 75%
Arată mai mult

Formular de consimțământ

Meteoprog și furnizorii noștri de servicii pot stoca și accesa date personale, precum cookies, identificatori de dispozitiv sau alte tehnologii similare pe dispozitivul dumneavoastră și procesa astfel de date pentru a personaliza conținutul și reclamele, dar și pentru a oferi caracteristici de social media și pentru a analiza traficul.

  • Stocarea și/sau accesarea informațiilor pe dispozitivul dumneavoastră

    Cookies, identificatori de dispozitiv sau alte informații pot fi stocate sau accesate pe dispozitiv în scopurile indicate mai sus.

  • Reclame și conținut personalizat, evaluarea reclamelor și a conținutului, informații despre audiențe și dezvoltarea produselor

    Reclamele și conținutul pot fi personalizate pe baza unui profil. Pot fi adăugate date suplimentare pentru a personaliza mai bine reclamele și conținutul. Performanța reclamelor și conținutului poate fi măsurată. Pot fi obținute informații despre utilizatorii care au văzut reclamele și conținutul. Aceste date pot fi utilizate pentru a dezvolta sau îmbunătăți experiența utilizatorilor, sistemele și software-ul.

Dând clic pe ‘Sunt de acord’, permiteți utilizarea cookie-urilor menționate, a identificatorilor de dispozitiv, balizelor web sau altor tehnologii similare. Setările pot fi modificate din browser-ul dispozitivului dumneavoastră.

În anumite scopuri, interesele legitime pot prima asupra consimțământului. Puteți citi mai multe informații în acest sens în Politica privind Confidențialitatea Datelor și Cookie.